owner,sensor,date,latitude,longitude,vertical_datum,direction_of_sea_water_velocity,sea_water_speed,upward_sea_water_velocity,qcFlag 
TABS,ioos:station:wmo:42049:1,2005-02-01T00:00:00Z,28.3507,-96.0058,2.0,238.6580896,46.29533454,-99999.0,'11111222,11111222,99999999' 
TABS,ioos:station:wmo:42049:1,2005-02-01T00:30:00Z,28.3507,-96.0058,2.0,236.9014816,64.97272736,-99999.0,'11111222,11111222,99999999' 
TABS,ioos:station:wmo:42049:1,2005-02-01T01:00:00Z,28.3507,-96.0058,2.0,242.9503629,57.67919729,-99999.0,'11111222,11111222,99999999' 
TABS,ioos:station:wmo:42049:1,2005-02-01T01:30:00Z,28.3507,-96.0058,2.0,237.5527045,70.6965381,-99999.0,'11111222,11111222,99999999' 
TABS,ioos:station:wmo:42049:1,2005-02-01T02:00:00Z,28.3507,-96.0058,2.0,240.620105,63.02581059,-99999.0,'11111222,11111222,99999999' 
TABS,ioos:station:wmo:42049:1,2005-02-01T02:30:00Z,28.3507,-96.0058,2.0,236.3228943,71.66726728,-99999.0,'11111222,11111222,99999999' 
TABS,ioos:station:wmo:42049:1,2005-02-01T03:00:00Z,28.3507,-96.0058,2.0,240.9377046,60.66845803,-99999.0,'11111222,11111222,99999999' 
TABS,ioos:station:wmo:42049:1,2005-02-01T03:30:00Z,28.3507,-96.0058,2.0,236.1468123,66.38401389,-99999.0,'11111222,11111222,99999999' 
TABS,ioos:station:wmo:42049:1,2005-02-01T04:00:00Z,28.3507,-96.0058,2.0,239.0466709,63.83005953,-99999.0,'11111222,11111222,99999999' 
TABS,ioos:station:wmo:42049:1,2005-02-01T04:30:00Z,28.3507,-96.0058,2.0,236.8709086,76.72149243,-99999.0,'11111222,11111222,99999999' 
TABS,ioos:station:wmo:42049:1,2005-02-01T05:00:00Z,28.3507,-96.0058,2.0,240.1663585,74.75706388,-99999.0,'11111222,11111222,99999999' 
TABS,ioos:station:wmo:42049:1,2005-02-01T05:30:00Z,28.3507,-96.0058,2.0,241.6467431,69.951426,-99999.0,'11111222,11111222,99999999' 
TABS,ioos:station:wmo:42049:1,2005-02-01T06:00:00Z,28.3507,-96.0058,2.0,239.9995172,84.6396621,-99999.0,'11111222,11111222,99999999' 
TABS,ioos:station:wmo:42049:1,2005-02-01T06:30:00Z,28.3507,-96.0058,2.0,236.754111,97.95190861,-99999.0,'11111222,11111222,99999999' 
TABS,ioos:station:wmo:42049:1,2005-02-01T07:00:00Z,28.3507,-96.0058,2.0,236.4727199,94.49078791,-99999.0,'11111222,11111222,99999999' 
TABS,ioos:station:wmo:42049:1,2005-02-01T07:30:00Z,28.3507,-96.0058,2.0,237.0189832,94.53370616,-99999.0,'11111222,11111222,99999999' 
TABS,ioos:station:wmo:42049:1,2005-02-01T08:00:00Z,28.3507,-96.0058,2.0,237.4982567,85.83336472,-99999.0,'11111222,11111222,99999999' 
TABS,ioos:station:wmo:42049:1,2005-02-01T08:30:00Z,28.3507,-96.0058,2.0,237.3816766,91.60813283,-99999.0,'11111222,11111222,99999999' 
TABS,ioos:station:wmo:42049:1,2005-02-01T09:00:00Z,28.3507,-96.0058,2.0,237.4537484,85.28274444,-99999.0,'11111222,11111222,99999999' 
TABS,ioos:station:wmo:42049:1,2005-02-01T09:30:00Z,28.3507,-96.0058,2.0,242.5864456,73.71782145,-99999.0,'11111222,11111222,99999999' 
TABS,ioos:station:wmo:42049:1,2005-02-01T10:00:00Z,28.3507,-96.0058,2.0,241.7734384,76.51909892,-99999.0,'11111222,11111222,99999999' 
TABS,ioos:station:wmo:42049:1,2005-02-01T10:30:00Z,28.3507,-96.0058,2.0,235.6170279,76.17976962,-99999.0,'11111222,11111222,99999999' 
TABS,ioos:station:wmo:42049:1,2005-02-01T11:00:00Z,28.3507,-96.0058,2.0,233.9755684,77.09239976,-99999.0,'11111222,11111222,99999999' 
TABS,ioos:station:wmo:42049:1,2005-02-01T11:30:00Z,28.3507,-96.0058,2.0,236.7936574,61.0608033,-99999.0,'11111222,11111222,99999999' 
TABS,ioos:station:wmo:42049:1,2005-02-01T12:00:00Z,28.3507,-96.0058,2.0,240.2309372,44.7331309,-99999.0,'11111222,11111222,99999999' 
TABS,ioos:station:wmo:42049:1,2005-02-01T12:30:00Z,28.3507,-96.0058,2.0,238.4269572,44.21483235,-99999.0,'11111222,11111222,99999999' 
TABS,ioos:station:wmo:42049:1,2005-02-01T13:00:00Z,28.3507,-96.0058,2.0,234.6335165,53.19632036,-99999.0,'11111222,11111222,99999999' 
TABS,ioos:station:wmo:42049:1,2005-02-01T13:30:00Z,28.3507,-96.0058,2.0,236.7778551,58.37027754,-99999.0,'11111222,11111222,99999999' 
TABS,ioos:station:wmo:42049:1,2005-02-01T14:00:00Z,28.3507,-96.0058,2.0,246.7545688,43.70798668,-99999.0,'11111222,11111222,99999999' 
TABS,ioos:station:wmo:42049:1,2005-02-01T14:30:00Z,28.3507,-96.0058,2.0,242.9863363,46.87389145,-99999.0,'11111222,11111222,99999999' 
TABS,ioos:station:wmo:42049:1,2005-02-01T15:00:00Z,28.3507,-96.0058,2.0,236.2347154,48.81365895,-99999.0,'11111222,11111222,99999999' 
TABS,ioos:station:wmo:42049:1,2005-02-01T15:30:00Z,28.3507,-96.0058,2.0,236.8282269,46.87963417,-99999.0,'11111222,11111222,99999999' 
TABS,ioos:station:wmo:42049:1,2005-02-01T16:00:00Z,28.3507,-96.0058,2.0,242.8888961,64.79971682,-99999.0,'11111222,11111222,99999999' 
TABS,ioos:station:wmo:42049:1,2005-02-01T16:30:00Z,28.3507,-96.0058,2.0,248.7555091,55.74837755,-99999.0,'11111222,11111222,99999999' 
TABS,ioos:station:wmo:42049:1,2005-02-01T17:00:00Z,28.3507,-96.0058,2.0,247.477372,60.95931922,-99999.0,'11111222,11111222,99999999' 
TABS,ioos:station:wmo:42049:1,2005-02-01T17:30:00Z,28.3507,-96.0058,2.0,244.3633362,57.1122071,-99999.0,'11111222,11111222,99999999' 
TABS,ioos:station:wmo:42049:1,2005-02-01T18:00:00Z,28.3507,-96.0058,2.0,242.6695739,54.93167028,-99999.0,'11111222,11111222,99999999' 
TABS,ioos:station:wmo:42049:1,2005-02-01T18:30:00Z,28.3507,-96.0058,2.0,239.533048,54.94678517,-99999.0,'11111222,11111222,99999999' 
TABS,ioos:station:wmo:42049:1,2005-02-01T19:00:00Z,28.3507,-96.0058,2.0,240.3132684,52.23601535,-99999.0,'11111222,11111222,99999999' 
TABS,ioos:station:wmo:42049:1,2005-02-01T19:30:00Z,28.3507,-96.0058,2.0,243.1060949,46.80167198,-99999.0,'11111222,11111222,99999999' 
TABS,ioos:station:wmo:42049:1,2005-02-01T20:00:00Z,28.3507,-96.0058,2.0,240.4716103,49.48773282,-99999.0,'11111222,11111222,99999999' 
TABS,ioos:station:wmo:42049:1,2005-02-01T20:30:00Z,28.3507,-96.0058,2.0,246.3797133,48.56893657,-99999.0,'11111222,11111222,99999999' 
TABS,ioos:station:wmo:42049:1,2005-02-01T21:00:00Z,28.3507,-96.0058,2.0,243.1978854,40.05279141,-99999.0,'11111222,11111222,99999999' 
TABS,ioos:station:wmo:42049:1,2005-02-01T21:30:00Z,28.3507,-96.0058,2.0,241.4995914,48.87253728,-99999.0,'11111222,11111222,99999999' 
TABS,ioos:station:wmo:42049:1,2005-02-01T22:00:00Z,28.3507,-96.0058,2.0,248.5970276,64.5622622,-99999.0,'11111222,11111222,99999999' 
TABS,ioos:station:wmo:42049:1,2005-02-01T22:30:00Z,28.3507,-96.0058,2.0,246.4955922,66.74794753,-99999.0,'11111222,11111222,99999999' 
TABS,ioos:station:wmo:42049:1,2005-02-01T23:00:00Z,28.3507,-96.0058,2.0,250.7758489,62.01814251,-99999.0,'11111222,11111222,99999999' 
TABS,ioos:station:wmo:42049:1,2005-02-01T23:30:00Z,28.3507,-96.0058,2.0,245.8370793,62.51727521,-99999.0,'11111222,11111222,99999999' 
TABS,ioos:station:wmo:42049:1,2005-02-02T00:00:00Z,28.3507,-96.0058,2.0,250.601942,58.5325354,-99999.0,'11111222,11111222,99999999' 
TABS,ioos:station:wmo:42049:1,2005-02-02T00:30:00Z,28.3507,-96.0058,2.0,241.1063781,77.61090452,-99999.0,'11111222,11111222,99999999' 
TABS,ioos:station:wmo:42049:1,2005-02-02T01:00:00Z,28.3507,-96.0058,2.0,242.5783836,68.83385795,-99999.0,'11111222,11111222,99999999' 
TABS,ioos:station:wmo:42049:1,2005-02-02T01:30:00Z,28.3507,-96.0058,2.0,241.7116781,75.85936,-99999.0,'11111222,11111222,99999999' 
TABS,ioos:station:wmo:42049:1,2005-02-02T02:00:00Z,28.3507,-96.0058,2.0,238.5708343,72.68349469,-99999.0,'11111222,11111222,99999999' 
TABS,ioos:station:wmo:42049:1,2005-02-02T02:30:00Z,28.3507,-96.0058,2.0,235.8045316,63.55724428,-99999.0,'11111222,11111222,99999999' 
TABS,ioos:station:wmo:42049:1,2005-02-02T03:00:00Z,28.3507,-96.0058,2.0,232.0174637,71.70751216,-99999.0,'11111222,11111222,99999999' 
TABS,ioos:station:wmo:42049:1,2005-02-02T03:30:00Z,28.3507,-96.0058,2.0,230.9332797,77.90924271,-99999.0,'11111222,11111222,99999999' 
TABS,ioos:station:wmo:42049:1,2005-02-02T04:00:00Z,28.3507,-96.0058,2.0,232.7550094,74.30358942,-99999.0,'11111222,11111222,99999999' 
TABS,ioos:station:wmo:42049:1,2005-02-02T04:30:00Z,28.3507,-96.0058,2.0,233.5767231,74.86427786,-99999.0,'11111222,11111222,99999999' 
TABS,ioos:station:wmo:42049:1,2005-02-02T05:00:00Z,28.3507,-96.0058,2.0,235.0567993,70.65795992,-99999.0,'11111222,11111222,99999999' 
TABS,ioos:station:wmo:42049:1,2005-02-02T05:30:00Z,28.3507,-96.0058,2.0,235.3438756,83.76053307,-99999.0,'11111222,11111222,99999999' 
TABS,ioos:station:wmo:42049:1,2005-02-02T06:00:00Z,28.3507,-96.0058,2.0,232.5382281,93.5669867,-99999.0,'11111222,11111222,99999999' 
TABS,ioos:station:wmo:42049:1,2005-02-02T06:30:00Z,28.3507,-96.0058,2.0,237.5627559,85.85484319,-99999.0,'11111222,11111222,99999999' 
TABS,ioos:station:wmo:42049:1,2005-02-02T07:00:00Z,28.3507,-96.0058,2.0,231.2996559,86.79827475,-99999.0,'11111222,11111222,99999999' 
TABS,ioos:station:wmo:42049:1,2005-02-02T07:30:00Z,28.3507,-96.0058,2.0,234.1742563,82.17765451,-99999.0,'11111222,11111222,99999999' 
TABS,ioos:station:wmo:42049:1,2005-02-02T08:00:00Z,28.3507,-96.0058,2.0,239.2986284,71.05947087,-99999.0,'11111222,11111222,99999999' 
TABS,ioos:station:wmo:42049:1,2005-02-02T08:30:00Z,28.3507,-96.0058,2.0,237.648829,71.55645743,-99999.0,'11111222,11111222,99999999' 
TABS,ioos:station:wmo:42049:1,2005-02-02T09:00:00Z,28.3507,-96.0058,2.0,238.2203808,64.46427305,-99999.0,'11111222,11111222,99999999' 
TABS,ioos:station:wmo:42049:1,2005-02-02T09:30:00Z,28.3507,-96.0058,2.0,239.9685467,64.05977833,-99999.0,'11111222,11111222,99999999' 
TABS,ioos:station:wmo:42049:1,2005-02-02T10:00:00Z,28.3507,-96.0058,2.0,232.7051958,70.98394889,-99999.0,'11111222,11111222,99999999' 
TABS,ioos:station:wmo:42049:1,2005-02-02T10:30:00Z,28.3507,-96.0058,2.0,235.9385596,70.24038511,-99999.0,'11111222,11111222,99999999' 
TABS,ioos:station:wmo:42049:1,2005-02-02T11:00:00Z,28.3507,-96.0058,2.0,234.4833382,77.97775901,-99999.0,'11111222,11111222,99999999' 
TABS,ioos:station:wmo:42049:1,2005-02-02T11:30:00Z,28.3507,-96.0058,2.0,242.2813895,69.55132925,-99999.0,'11111222,11111222,99999999' 
TABS,ioos:station:wmo:42049:1,2005-02-02T12:00:00Z,28.3507,-96.0058,2.0,233.8060804,89.97226795,-99999.0,'11111222,11111222,99999999' 
TABS,ioos:station:wmo:42049:1,2005-02-02T12:30:00Z,28.3507,-96.0058,2.0,236.0662207,78.35488306,-99999.0,'11111222,11111222,99999999' 
TABS,ioos:station:wmo:42049:1,2005-02-02T13:00:00Z,28.3507,-96.0058,2.0,239.5662916,70.39975568,-99999.0,'11111222,11111222,99999999' 
TABS,ioos:station:wmo:42049:1,2005-02-02T13:30:00Z,28.3507,-96.0058,2.0,237.8293708,67.03136355,-99999.0,'11111222,11111222,99999999' 
TABS,ioos:station:wmo:42049:1,2005-02-02T14:00:00Z,28.3507,-96.0058,2.0,236.9459587,78.91097009,-99999.0,'11111222,11111222,99999999' 
TABS,ioos:station:wmo:42049:1,2005-02-02T14:30:00Z,28.3507,-96.0058,2.0,235.6592881,71.59976606,-99999.0,'11111222,11111222,99999999' 
TABS,ioos:station:wmo:42049:1,2005-02-02T15:00:00Z,28.3507,-96.0058,2.0,234.8882035,79.38538405,-99999.0,'11111222,11111222,99999999' 
TABS,ioos:station:wmo:42049:1,2005-02-02T15:30:00Z,28.3507,-96.0058,2.0,233.8850198,77.23070957,-99999.0,'11111222,11111222,99999999' 
TABS,ioos:station:wmo:42049:1,2005-02-02T16:00:00Z,28.3507,-96.0058,2.0,232.7079668,81.50220856,-99999.0,'11111222,11111222,99999999' 
TABS,ioos:station:wmo:42049:1,2005-02-02T16:30:00Z,28.3507,-96.0058,2.0,231.0850728,80.77543005,-99999.0,'11111222,11111222,99999999' 
TABS,ioos:station:wmo:42049:1,2005-02-02T17:00:00Z,28.3507,-96.0058,2.0,232.2547925,75.70082694,-99999.0,'11111222,11111222,99999999' 
TABS,ioos:station:wmo:42049:1,2005-02-02T17:30:00Z,28.3507,-96.0058,2.0,232.9843833,73.30223598,-99999.0,'11111222,11111222,99999999' 
TABS,ioos:station:wmo:42049:1,2005-02-02T18:00:00Z,28.3507,-96.0058,2.0,230.5672514,76.67267049,-99999.0,'11111222,11111222,99999999' 
TABS,ioos:station:wmo:42049:1,2005-02-02T18:30:00Z,28.3507,-96.0058,2.0,228.4748268,79.67480719,-99999.0,'11111222,11111222,99999999' 
TABS,ioos:station:wmo:42049:1,2005-02-02T19:00:00Z,28.3507,-96.0058,2.0,227.9199429,81.4725776,-99999.0,'11111222,11111222,99999999' 
TABS,ioos:station:wmo:42049:1,2005-02-02T19:30:00Z,28.3507,-96.0058,2.0,231.2836747,73.25802345,-99999.0,'11111222,11111222,99999999' 
TABS,ioos:station:wmo:42049:1,2005-02-02T20:00:00Z,28.3507,-96.0058,2.0,227.0509146,79.41655369,-99999.0,'11111222,11111222,99999999' 
TABS,ioos:station:wmo:42049:1,2005-02-02T20:30:00Z,28.3507,-96.0058,2.0,229.8903378,73.90008457,-99999.0,'11111222,11111222,99999999' 
TABS,ioos:station:wmo:42049:1,2005-02-02T21:00:00Z,28.3507,-96.0058,2.0,228.7222188,69.48549489,-99999.0,'11111222,11111222,99999999' 
TABS,ioos:station:wmo:42049:1,2005-02-02T21:30:00Z,28.3507,-96.0058,2.0,226.9534089,82.96356911,-99999.0,'11111222,11111222,99999999' 
TABS,ioos:station:wmo:42049:1,2005-02-02T22:00:00Z,28.3507,-96.0058,2.0,228.9300871,78.29824072,-99999.0,'11111222,11111222,99999999' 
TABS,ioos:station:wmo:42049:1,2005-02-02T22:30:00Z,28.3507,-96.0058,2.0,228.3395263,73.31006616,-99999.0,'11111222,11111222,99999999' 
TABS,ioos:station:wmo:42049:1,2005-02-02T23:00:00Z,28.3507,-96.0058,2.0,226.2930483,76.12529737,-99999.0,'11111222,11111222,99999999' 
TABS,ioos:station:wmo:42049:1,2005-02-02T23:30:00Z,28.3507,-96.0058,2.0,226.1780423,75.30158365,-99999.0,'11111222,11111222,99999999' 
TABS,ioos:station:wmo:42049:1,2005-02-03T00:00:00Z,28.3507,-96.0058,2.0,228.0071786,72.50760098,-99999.0,'11111222,11111222,99999999' 
TABS,ioos:station:wmo:42049:1,2005-02-03T00:30:00Z,28.3507,-96.0058,2.0,224.8800931,71.14216823,-99999.0,'11111222,11111222,99999999' 
TABS,ioos:station:wmo:42049:1,2005-02-03T01:00:00Z,28.3507,-96.0058,2.0,228.2762303,66.68311106,-99999.0,'11111222,11111222,99999999' 
TABS,ioos:station:wmo:42049:1,2005-02-03T01:30:00Z,28.3507,-96.0058,2.0,222.9393497,76.50891778,-99999.0,'11111222,11111222,99999999' 
TABS,ioos:station:wmo:42049:1,2005-02-03T02:00:00Z,28.3507,-96.0058,2.0,225.2312657,76.97627297,-99999.0,'11111222,11111222,99999999' 
TABS,ioos:station:wmo:42049:1,2005-02-03T02:30:00Z,28.3507,-96.0058,2.0,225.9607903,77.56638447,-99999.0,'11111222,11111222,99999999' 
TABS,ioos:station:wmo:42049:1,2005-02-03T03:00:00Z,28.3507,-96.0058,2.0,226.5002907,71.82425496,-99999.0,'11111222,11111222,99999999' 
TABS,ioos:station:wmo:42049:1,2005-02-03T03:30:00Z,28.3507,-96.0058,2.0,227.0515312,74.06035174,-99999.0,'11111222,11111222,99999999' 
TABS,ioos:station:wmo:42049:1,2005-02-03T04:00:00Z,28.3507,-96.0058,2.0,225.241709,75.32875746,-99999.0,'11111222,11111222,99999999' 
TABS,ioos:station:wmo:42049:1,2005-02-03T04:30:00Z,28.3507,-96.0058,2.0,225.4605554,74.72239089,-99999.0,'11111222,11111222,99999999' 
TABS,ioos:station:wmo:42049:1,2005-02-03T05:00:00Z,28.3507,-96.0058,2.0,226.864517,72.79276956,-99999.0,'11111222,11111222,99999999' 
TABS,ioos:station:wmo:42049:1,2005-02-03T05:30:00Z,28.3507,-96.0058,2.0,225.7871059,85.41242298,-99999.0,'11111222,11111222,99999999' 
TABS,ioos:station:wmo:42049:1,2005-02-03T06:00:00Z,28.3507,-96.0058,2.0,231.95668,82.25523995,-99999.0,'11111222,11111222,99999999' 
TABS,ioos:station:wmo:42049:1,2005-02-03T06:30:00Z,28.3507,-96.0058,2.0,231.8746326,77.97470872,-99999.0,'11111222,11111222,99999999' 
TABS,ioos:station:wmo:42049:1,2005-02-03T07:00:00Z,28.3507,-96.0058,2.0,234.5278414,74.84027926,-99999.0,'11111222,11111222,99999999' 
TABS,ioos:station:wmo:42049:1,2005-02-03T07:30:00Z,28.3507,-96.0058,2.0,233.7122468,76.13593435,-99999.0,'11111222,11111222,99999999' 
TABS,ioos:station:wmo:42049:1,2005-02-03T08:00:00Z,28.3507,-96.0058,2.0,234.3859048,86.67082843,-99999.0,'11111222,11111222,99999999' 
TABS,ioos:station:wmo:42049:1,2005-02-03T08:30:00Z,28.3507,-96.0058,2.0,234.6716122,77.52606916,-99999.0,'11111222,11111222,99999999' 
TABS,ioos:station:wmo:42049:1,2005-02-03T09:00:00Z,28.3507,-96.0058,2.0,235.7758416,74.72967951,-99999.0,'11111222,11111222,99999999' 
TABS,ioos:station:wmo:42049:1,2005-02-03T09:30:00Z,28.3507,-96.0058,2.0,232.3111682,89.73315831,-99999.0,'11111222,11111222,99999999' 
TABS,ioos:station:wmo:42049:1,2005-02-03T10:00:00Z,28.3507,-96.0058,2.0,236.4846868,81.67998531,-99999.0,'11111222,11111222,99999999' 
TABS,ioos:station:wmo:42049:1,2005-02-03T10:30:00Z,28.3507,-96.0058,2.0,242.1402875,73.84933446,-99999.0,'11111222,11111222,99999999' 
TABS,ioos:station:wmo:42049:1,2005-02-03T11:00:00Z,28.3507,-96.0058,2.0,237.6917413,86.1228483,-99999.0,'11111222,11111222,99999999' 
TABS,ioos:station:wmo:42049:1,2005-02-03T11:30:00Z,28.3507,-96.0058,2.0,244.794701,71.97247321,-99999.0,'11111222,11111222,99999999' 
TABS,ioos:station:wmo:42049:1,2005-02-03T12:00:00Z,28.3507,-96.0058,2.0,241.3792302,82.67142735,-99999.0,'11111222,11111222,99999999' 
TABS,ioos:station:wmo:42049:1,2005-02-03T12:30:00Z,28.3507,-96.0058,2.0,242.3849319,78.85251676,-99999.0,'11111222,11111222,99999999' 
TABS,ioos:station:wmo:42049:1,2005-02-03T13:00:00Z,28.3507,-96.0058,2.0,246.3835554,71.54158301,-99999.0,'11111222,11111222,99999999' 
TABS,ioos:station:wmo:42049:1,2005-02-03T13:30:00Z,28.3507,-96.0058,2.0,245.3138286,67.6416595,-99999.0,'11111222,11111222,99999999' 
TABS,ioos:station:wmo:42049:1,2005-02-03T14:00:00Z,28.3507,-96.0058,2.0,243.2875868,64.49288488,-99999.0,'11111222,11111222,99999999' 
TABS,ioos:station:wmo:42049:1,2005-02-03T14:30:00Z,28.3507,-96.0058,2.0,242.0137552,73.94714328,-99999.0,'11111222,11111222,99999999' 
TABS,ioos:station:wmo:42049:1,2005-02-03T15:00:00Z,28.3507,-96.0058,2.0,245.6734265,67.65692426,-99999.0,'11111222,11111222,99999999' 
TABS,ioos:station:wmo:42049:1,2005-02-03T15:30:00Z,28.3507,-96.0058,2.0,248.960801,62.50687322,-99999.0,'11111222,11111222,99999999' 
TABS,ioos:station:wmo:42049:1,2005-02-03T16:00:00Z,28.3507,-96.0058,2.0,247.1612262,58.48504082,-99999.0,'11111222,11111222,99999999' 
TABS,ioos:station:wmo:42049:1,2005-02-03T16:30:00Z,28.3507,-96.0058,2.0,244.851491,53.53441977,-99999.0,'11111222,11111222,99999999' 
TABS,ioos:station:wmo:42049:1,2005-02-03T17:00:00Z,28.3507,-96.0058,2.0,243.4826972,53.263158,-99999.0,'11111222,11111222,99999999' 
TABS,ioos:station:wmo:42049:1,2005-02-03T17:30:00Z,28.3507,-96.0058,2.0,241.5558761,49.92693061,-99999.0,'11111222,11111222,99999999' 
TABS,ioos:station:wmo:42049:1,2005-02-03T18:00:00Z,28.3507,-96.0058,2.0,236.4370133,46.14284993,-99999.0,'11111222,11111222,99999999' 
TABS,ioos:station:wmo:42049:1,2005-02-03T18:30:00Z,28.3507,-96.0058,2.0,237.2399369,49.1945251,-99999.0,'11111222,11111222,99999999' 
TABS,ioos:station:wmo:42049:1,2005-02-03T19:00:00Z,28.3507,-96.0058,2.0,233.0277961,46.07407297,-99999.0,'11111222,11111222,99999999' 
TABS,ioos:station:wmo:42049:1,2005-02-03T19:30:00Z,28.3507,-96.0058,2.0,230.5711836,57.39121361,-99999.0,'11111222,11111222,99999999' 
TABS,ioos:station:wmo:42049:1,2005-02-03T20:00:00Z,28.3507,-96.0058,2.0,236.0654342,52.71918531,-99999.0,'11111222,11111222,99999999' 
TABS,ioos:station:wmo:42049:1,2005-02-03T20:30:00Z,28.3507,-96.0058,2.0,233.95848,51.85542402,-99999.0,'11111222,11111222,99999999' 
TABS,ioos:station:wmo:42049:1,2005-02-03T21:00:00Z,28.3507,-96.0058,2.0,240.1956184,46.857867,-99999.0,'11111222,11111222,99999999' 
TABS,ioos:station:wmo:42049:1,2005-02-03T21:30:00Z,28.3507,-96.0058,2.0,238.8134978,43.74104365,-99999.0,'11111222,11111222,99999999' 
TABS,ioos:station:wmo:42049:1,2005-02-03T22:00:00Z,28.3507,-96.0058,2.0,230.8260127,45.27659439,-99999.0,'11111222,11111222,99999999' 
TABS,ioos:station:wmo:42049:1,2005-02-03T22:30:00Z,28.3507,-96.0058,2.0,228.4438788,48.96365999,-99999.0,'11111222,11111222,99999999' 
TABS,ioos:station:wmo:42049:1,2005-02-03T23:00:00Z,28.3507,-96.0058,2.0,231.1343887,42.67787834,-99999.0,'11111222,11111222,99999999' 
TABS,ioos:station:wmo:42049:1,2005-02-03T23:30:00Z,28.3507,-96.0058,2.0,230.3815892,47.34445057,-99999.0,'11111222,11111222,99999999' 
TABS,ioos:station:wmo:42049:1,2005-02-04T00:00:00Z,28.3507,-96.0058,2.0,232.8910559,50.88444163,-99999.0,'11111222,11111222,99999999' 
TABS,ioos:station:wmo:42049:1,2005-02-04T00:30:00Z,28.3507,-96.0058,2.0,233.8283208,50.03371863,-99999.0,'11111222,11111222,99999999' 
TABS,ioos:station:wmo:42049:1,2005-02-04T01:00:00Z,28.3507,-96.0058,2.0,237.3110195,47.28986784,-99999.0,'11111222,11111222,99999999' 
TABS,ioos:station:wmo:42049:1,2005-02-04T01:30:00Z,28.3507,-96.0058,2.0,237.2183871,43.36636946,-99999.0,'11111222,11111222,99999999' 
TABS,ioos:station:wmo:42049:1,2005-02-04T02:00:00Z,28.3507,-96.0058,2.0,230.0930281,51.53236362,-99999.0,'11111222,11111222,99999999' 
TABS,ioos:station:wmo:42049:1,2005-02-04T02:30:00Z,28.3507,-96.0058,2.0,237.5940815,42.19000474,-99999.0,'11111222,11111222,99999999' 
TABS,ioos:station:wmo:42049:1,2005-02-04T03:00:00Z,28.3507,-96.0058,2.0,233.3846729,43.1564271,-99999.0,'11111222,11111222,99999999' 
TABS,ioos:station:wmo:42049:1,2005-02-04T03:30:00Z,28.3507,-96.0058,2.0,235.963872,40.44947466,-99999.0,'11111222,11111222,99999999' 
TABS,ioos:station:wmo:42049:1,2005-02-04T04:00:00Z,28.3507,-96.0058,2.0,239.6455486,42.22877218,-99999.0,'11111222,11111222,99999999' 
TABS,ioos:station:wmo:42049:1,2005-02-04T04:30:00Z,28.3507,-96.0058,2.0,239.4736649,44.2187709,-99999.0,'11111222,11111222,99999999' 
TABS,ioos:station:wmo:42049:1,2005-02-04T05:00:00Z,28.3507,-96.0058,2.0,238.4985198,40.22847748,-99999.0,'11111222,11111222,99999999' 
TABS,ioos:station:wmo:42049:1,2005-02-04T05:30:00Z,28.3507,-96.0058,2.0,241.3781792,37.38877505,-99999.0,'11111222,11111222,99999999' 
TABS,ioos:station:wmo:42049:1,2005-02-04T06:00:00Z,28.3507,-96.0058,2.0,238.5107796,34.80538464,-99999.0,'11111222,11111222,99999999' 
TABS,ioos:station:wmo:42049:1,2005-02-04T06:30:00Z,28.3507,-96.0058,2.0,235.759349,34.6564929,-99999.0,'11111222,11111222,99999999' 
TABS,ioos:station:wmo:42049:1,2005-02-04T07:00:00Z,28.3507,-96.0058,2.0,231.2875603,34.21768549,-99999.0,'11111222,11111222,99999999' 
TABS,ioos:station:wmo:42049:1,2005-02-04T07:30:00Z,28.3507,-96.0058,2.0,232.3448578,36.06138378,-99999.0,'11111222,11111222,99999999' 
TABS,ioos:station:wmo:42049:1,2005-02-04T08:00:00Z,28.3507,-96.0058,2.0,237.6138794,41.67155505,-99999.0,'11111222,11111222,99999999' 
TABS,ioos:station:wmo:42049:1,2005-02-04T08:30:00Z,28.3507,-96.0058,2.0,236.5833185,40.63780014,-99999.0,'11111222,11111222,99999999' 
TABS,ioos:station:wmo:42049:1,2005-02-04T09:00:00Z,28.3507,-96.0058,2.0,236.5399473,40.01084853,-99999.0,'11111222,11111222,99999999' 
TABS,ioos:station:wmo:42049:1,2005-02-04T09:30:00Z,28.3507,-96.0058,2.0,242.6943311,42.92267117,-99999.0,'11111222,11111222,99999999' 
TABS,ioos:station:wmo:42049:1,2005-02-04T10:00:00Z,28.3507,-96.0058,2.0,243.9810816,37.9791061,-99999.0,'11111222,11111222,99999999' 
TABS,ioos:station:wmo:42049:1,2005-02-04T10:30:00Z,28.3507,-96.0058,2.0,240.5977067,50.14938185,-99999.0,'11111222,11111222,99999999' 
TABS,ioos:station:wmo:42049:1,2005-02-04T11:00:00Z,28.3507,-96.0058,2.0,240.3728569,48.14418449,-99999.0,'11111222,11111222,99999999' 
TABS,ioos:station:wmo:42049:1,2005-02-04T11:30:00Z,28.3507,-96.0058,2.0,245.348971,44.04381682,-99999.0,'11111222,11111222,99999999' 
TABS,ioos:station:wmo:42049:1,2005-02-04T12:00:00Z,28.3507,-96.0058,2.0,249.3383841,41.43497677,-99999.0,'11111222,11111222,99999999' 
TABS,ioos:station:wmo:42049:1,2005-02-04T12:30:00Z,28.3507,-96.0058,2.0,248.2548536,37.57361308,-99999.0,'11111222,11111222,99999999' 
TABS,ioos:station:wmo:42049:1,2005-02-04T13:00:00Z,28.3507,-96.0058,2.0,244.2526895,41.34463931,-99999.0,'11111222,11111222,99999999' 
TABS,ioos:station:wmo:42049:1,2005-02-04T13:30:00Z,28.3507,-96.0058,2.0,240.4540557,46.35826248,-99999.0,'11111222,11111222,99999999' 
TABS,ioos:station:wmo:42049:1,2005-02-04T14:00:00Z,28.3507,-96.0058,2.0,242.6802554,41.44240341,-99999.0,'11111222,11111222,99999999' 
TABS,ioos:station:wmo:42049:1,2005-02-04T14:30:00Z,28.3507,-96.0058,2.0,240.598324,38.68216773,-99999.0,'11111222,11111222,99999999' 
TABS,ioos:station:wmo:42049:1,2005-02-04T15:00:00Z,28.3507,-96.0058,2.0,245.4130607,39.89734828,-99999.0,'11111222,11111222,99999999' 
TABS,ioos:station:wmo:42049:1,2005-02-04T15:30:00Z,28.3507,-96.0058,2.0,243.4539227,39.76176304,-99999.0,'11111222,11111222,99999999' 
TABS,ioos:station:wmo:42049:1,2005-02-04T16:00:00Z,28.3507,-96.0058,2.0,248.8516995,43.96065969,-99999.0,'11111222,11111222,99999999' 